Wind_Speed
23 24 26 27 27 27 27 27 28 28 29 29 29 30 32 33 34 35 35 35 36 38 40 43 45 47 49 51 52 54 56 58 59 59 60 61 62 62 63 63 64 65 66
25 26 27 28 29 29 29 30 31 33 34 35 35 36 37 38 38 39 39 39 40 42 45 48 50 51 52 53 54 56 57 57 57 58 58 58 57 58 58 59 59 60 60
26 28 29 30 30 32 33 33 35 38 39 40 40 41 41 41 40 41 42 43 44 47 50 52 53 53 53 54 55 55 55 54 54 53 52 49 48 48 49 51 52 53 54
28 30 32 32 33 34 35 37 39 42 43 44 45 45 43 42 42 43 45 46 48 51 54 56 56 55 55 55 54 52 50 49 48 46 45 45 45 45 45 44 45 47 50
31 33 34 35 36 36 37 40 42 45 46 48 48 46 44 43 43 44 47 49 52 55 58 58 58 57 55 54 52 50 48 45 44 43 42 43 44 46 47 47 47 49 50
35 36 36 37 37 38 40 42 44 45 47 48 47 44 43 42 44 46 49 52 56 59 61 60 59 57 55 53 49 47 44 43 42 42 43 44 46 48 50 51 51 52 52
38 38 38 37 37 38 40 42 43 44 45 46 45 43 42 44 46 48 51 55 58 60 60 59 57 55 53 49 46 44 42 42 42 44 46 49 51 53 54 55 55 54 53
37 38 36 35 36 37 39 41 42 43 44 44 43 43 43 45 47 50 54 57 59 59 58 56 55 52 48 45 43 42 43 44 46 48 51 53 56 58 59 59 59 57 55
34 34 33 33 34 36 39 42 44 45 45 45 44 44 44 46 49 52 56 59 59 57 56 53 51 47 44 43 43 43 45 48 51 53 56 59 60 61 61 61 61 60 57
33 34 34 34 35 38 41 43 46 48 47 46 46 45 46 48 51 55 58 59 58 56 53 50 47 45 44 43 44 46 49 53 55 58 61 62 62 62 61 61 59 58 55
33 35 36 37 38 40 43 46 49 50 49 48 47 46 47 49 54 57 58 57 55 53 50 48 45 44 44 45 47 51 54 57 60 62 62 62 62 60 58 57 54 51 49
35 36 37 39 40 43 45 48 51 51 50 49 47 47 48 52 55 56 55 54 52 50 48 45 44 44 46 48 51 54 58 60 61 62 62 60 59 56 53 50 48 46 44
39 40 41 42 44 45 48 49 51 51 49 46 45 47 50 52 53 52 52 51 50 48 46 45 45 46 49 52 55 57 59 61 62 61 59 56 53 49 47 44 43 41 39
40 41 43 44 46 47 48 49 47 45 43 43 44 47 49 50 50 50 50 49 48 46 45 45 47 49 52 55 56 58 59 60 59 57 54 50 46 43 41 39 37 36 34
43 44 44 47 47 46 48 45 43 42 43 45 46 47 48 48 48 49 49 47 45 44 45 47 50 52 54 56 57 58 58 57 54 50 47 44 41 38 36 34 32 30 27
46 46 47 47 46 46 44 43 42 43 45 45 45 46 46 47 48 48 46 45 44 45 47 49 51 53 55 56 56 56 55 53 48 44 41 39 37 34 31 29 27 24 21
49 50 50 49 47 44 44 44 44 44 43 43 44 45 46 47 46 45 44 44 45 47 49 50 52 53 54 54 54 52 50 46 42 39 37 35 33 30 26 24 21 18 15
51 51 50 48 47 45 43 42 43 42 42 42 43 44 45 45 44 44 44 45 47 48 49 50 51 52 52 51 49 47 44 40 37 35 33 31 28 25 21 18 15 12 9
52 50 48 46 45 43 41 41 41 40 41 42 43 43 43 43 43 43 45 47 48 48 49 50 50 50 49 47 45 42 39 37 34 32 29 26 22 19 16 12 9 7 5
48 47 45 44 42 40 39 38 38 39 40 41 42 41 41 41 43 44 46 46 47 47 48 48 48 46 45 43 41 38 35 33 31 28 24 20 16 13 10 6 4 4 6
41 40 40 38 36 36 35 35 36 37 39 39 39 39 40 41 43 45 45 45 46 46 46 46 45 43 41 39 37 34 31 29 26 22 18 14 10 7 4 2 5 8 10
35 34 33 31 30 30 31 32 34 35 36 36 36 38 40 42 44 44 44 43 43 43 43 43 42 41 38 36 33 30 27 24 20 16 12 8 4 1 3 7 10 12 13
28 26 24 23 24 26 28 30 32 32 32 33 36 38 40 42 42 42 42 41 41 41 41 40 39 37 35 32 28 25 22 18 15 10 6 4 3 6 9 11 14 15 15
19 18 18 19 21 24 26 27 28 29 30 33 36 38 40 40 40 40 39 38 38 37 37 36 35 33 30 26 23 20 17 14 10 5 4 5 8 11 13 15 17 17 16
13 14 15 17 19 22 23 24 25 28 31 34 36 38 38 38 38 37 36 35 34 33 33 32 30 27 25 21 19 17 13 10 7 5 7 9 12 15 16 18 18 17 15
10 11 13 16 18 20 20 22 24 28 31 34 35 36 37 37 36 35 34 32 31 31 30 29 27 23 21 18 16 14 12 10 7 8 9 12 15 16 18 18 17 16 14
Wind_Direction
286 293 301 307 311 314 315 314 316 319 320 321 322 323 325 327 329 328 326 323 321 319 318 316 313 311 308 305 303 301 299 297 295 292 290 288 286 285 284 284 283 282 281
278 287 295 302 306 309 310 311 313 315 315 316 317 317 318 320 323 325 324 322 321 320 319 316 314 311 308 305 303 302 300 297 295 293 291 289 287 285 285 285 284 283 282
275 282 289 295 300 304 306 308 310 310 310 311 311 312 312 314 318 320 321 321 320 319 318 316 313 310 308 306 304 302 300 298 297 296 295 293 291 288 286 285 285 284 284
273 278 284 290 295 299 302 304 305 306 306 306 306 307 308 310 313 316 318 318 318 318 317 315 313 310 308 307 305 304 302 300 299 299 298 296 295 294 292 291 289 287 286
271 276 281 285 290 294 297 300 301 303 303 302 302 305 306 308 311 314 315 316 316 316 316 314 312 311 309 307 306 304 303 301 301 300 299 299 298 297 296 295 293 292 290
270 274 278 282 287 291 294 296 297 299 300 301 302 305 305 307 310 312 313 315 315 316 315 314 312 311 310 307 304 303 301 301 301 300 300 300 299 298 297 297 296 293 292
271 274 277 280 284 287 290 293 295 297 300 302 302 305 305 306 308 310 312 313 314 314 313 312 311 310 308 304 302 301 300 301 301 301 301 300 300 299 298 297 295 294 292
273 274 276 278 281 284 287 291 293 296 298 300 301 302 303 305 306 309 311 312 313 312 311 311 310 308 305 302 300 299 300 300 301 301 301 300 300 299 298 296 295 293 291
274 274 275 277 280 283 286 289 291 293 295 296 296 298 300 303 305 307 309 311 312 311 311 311 310 307 304 301 299 299 300 301 301 301 301 301 300 299 297 296 295 293 291
273 273 275 278 281 283 285 288 290 291 292 293 294 294 298 301 304 306 309 310 311 311 311 311 308 305 302 299 300 301 302 302 302 302 301 300 299 298 297 296 294 293 291
275 276 278 280 282 283 285 285 286 288 290 290 290 292 297 300 304 307 309 310 310 311 311 310 307 304 302 301 302 303 303 303 303 302 301 300 299 298 296 295 293 291 289
278 280 283 283 283 284 285 287 286 287 288 288 289 293 298 302 305 307 309 310 311 312 311 309 306 304 304 304 305 305 305 304 303 302 301 300 299 298 296 294 292 290 289
283 285 287 287 288 287 285 285 285 284 285 287 293 299 303 305 307 309 310 311 312 311 310 308 307 306 307 307 307 306 305 304 304 303 302 301 300 298 296 294 292 290 289
287 289 291 290 293 291 286 284 286 289 293 300 305 306 306 308 309 310 311 312 312 311 310 309 309 309 309 308 308 307 306 305 305 305 304 303 301 299 296 294 293 290 288
288 290 292 293 293 293 290 288 294 300 306 310 310 308 308 309 311 311 312 312 312 311 311 311 311 310 310 309 308 308 307 307 307 306 305 304 303 301 297 294 292 290 286
288 290 292 293 294 294 291 295 299 305 309 309 308 309 310 312 313 313 313 313 313 313 313 313 312 312 311 311 310 310 310 309 309 308 306 306 304 302 298 295 292 288 283
285 288 290 292 295 294 296 299 302 307 308 309 309 311 313 313 314 314 314 314 314 315 314 314 313 313 312 313 313 312 311 311 311 309 308 307 305 302 299 295 292 285 277
284 286 289 290 293 294 296 299 303 306 308 309 311 313 314 315 315 314 315 315 316 315 315 314 314 314 315 315 314 314 313 313 312 311 310 308 306 303 299 294 288 279 265
281 284 287 289 292 292 294 299 303 306 308 310 312 314 315 315 314 315 316 316 316 316 315 315 316 317 317 317 316 315 314 314 313 313 311 308 306 303 298 290 280 262 231
277 280 282 284 285 287 293 300 303 306 309 312 314 315 314 314 315 316 317 317 316 316 316 317 318 319 319 318 318 317 315 315 314 314 312 310 306 302 297 279 245 198 169
272 273 273 275 279 287 294 299 303 307 311 314 314 313 314 315 316 317 317 317 317 317 318 319 321 322 321 320 319 318 317 317 317 317 316 315 311 304 291 205 164 152 148
264 263 262 268 280 288 295 301 305 310 312 313 312 313 315 317 318 318 318 318 319 320 322 323 325 325 324 323 322 321 321 321 321 322 323 325 326 333 141 143 141 139 138
256 254 264 274 283 292 299 304 309 311 311 312 313 316 317 318 319 319 320 321 322 323 325 326 327 327 327 327 326 326 327 327 329 332 343 11 81 116 128 132 134 133 135
252 261 270 280 290 298 305 310 312 311 312 314 317 318 320 321 321 322 324 325 326 327 328 329 329 331 332 333 335 337 338 342 348 7 49 89 110 122 127 131 133 132 133
262 271 282 293 301 308 312 312 311 313 316 318 320 322 323 324 325 326 327 328 330 331 332 334 335 337 340 343 347 351 356 3 19 56 91 108 119 126 129 133 133 133 131
272 289 300 307 311 313 312 313 315 318 321 323 324 325 326 328 329 330 331 332 334 335 337 340 342 345 348 351 356 2 12 24 51 85 105 117 126 129 133 133 132 131 127
Height
5851 5849 5848 5846 5844 5843 5841 5839 5837 5835 5833 5832 5830 5828 5825 5822 5820 5816 5813 5809 5805 5801 5797 5792 5788 5783 5778 5772 5767 5762 5757 5752 5747 5743 5739 5734 5729 5724 5720 5716 5713 5709 5706
5844 5843 5842 5840 5839 5837 5835 5833 5831 5828 5826 5824 5822 5820 5817 5814 5811 5808 5804 5800 5796 5791 5786 5782 5776 5770 5765 5759 5753 5748 5742 5736 5731 5726 5721 5718 5715 5709 5704 5700 5695 5692 5688
5839 5838 5836 5835 5833 5831 5829 5827 5824 5822 5819 5817 5815 5812 5809 5806 5803 5800 5796 5791 5786 5781 5775 5770 5764 5758 5751 5745 5739 5733 5727 5721 5716 5710 5705 5701 5697 5694 5691 5686 5681 5677 5673
5833 5832 5831 5829 5827 5825 5823 5820 5818 5815 5812 5809 5807 5804 5801 5797 5794 5791 5786 5781 5776 5770 5764 5757 5751 5745 5738 5731 5725 5719 5713 5707 5702 5696 5691 5687 5683 5679 5676 5674 5669 5664 5659
5827 5826 5824 5822 5820 5818 5816 5813 5811 5807 5804 5801 5799 5795 5792 5789 5786 5782 5777 5771 5765 5758 5752 5745 5738 5731 5724 5717 5711 5705 5699 5694 5689 5684 5680 5675 5670 5665 5661 5659 5656 5650 5644
5819 5818 5817 5815 5813 5811 5809 5806 5803 5800 5797 5794 5791 5787 5784 5781 5777 5772 5766 5760 5753 5746 5738 5731 5723 5716 5710 5703 5697 5692 5687 5682 5677 5672 5668 5663 5658 5653 5648 5644 5640 5636 5630
5811 5810 5809 5808 5806 5804 5802 5799 5796 5793 5789 5786 5783 5779 5775 5771 5767 5762 5755 5748 5741 5733 5725 5717 5710 5703 5696 5690 5685 5680 5675 5670 5665 5660 5655 5650 5644 5639 5634 5629 5624 5620 5616
5803 5802 5801 5800 5798 5796 5794 5791 5788 5785 5782 5778 5774 5770 5766 5762 5757 5751 5744 5737 5729 5721 5713 5705 5698 5690 5684 5678 5673 5668 5664 5659 5653 5648 5642 5636 5630 5623 5617 5612 5607 5603 5600
5795 5794 5793 5792 5790 5788 5785 5782 5779 5776 5773 5769 5765 5761 5757 5752 5746 5740 5733 5725 5717 5709 5701 5693 5685 5678 5673 5667 5662 5657 5652 5646 5640 5634 5628 5621 5614 5606 5600 5593 5588 5584 5582
5787 5786 5785 5784 5782 5780 5776 5773 5769 5766 5762 5759 5755 5751 5746 5741 5735 5728 5721 5713 5705 5697 5688 5681 5674 5667 5661 5656 5651 5645 5639 5633 5626 5619 5612 5604 5597 5590 5582 5576 5570 5564 5562
5779 5778 5777 5775 5773 5770 5767 5763 5759 5755 5751 5748 5744 5739 5735 5729 5723 5716 5708 5700 5692 5684 5676 5669 5662 5656 5650 5644 5638 5632 5625 5618 5611 5603 5595 5588 5580 5573 5565 5559 5554 5549 5545
5771 5770 5769 5767 5764 5760 5756 5753 5748 5744 5740 5736 5732 5727 5723 5717 5710 5703 5695 5687 5679 5671 5664 5657 5650 5644 5638 5632 5625 5618 5610 5603 5595 5587 5579 5571 5563 5556 5549 5544 5539 5535 5531
5764 5762 5760 5757 5754 5750 5746 5741 5737 5732 5728 5725 5721 5716 5711 5705 5698 5690 5682 5674 5666 5659 5652 5645 5638 5632 5625 5618 5611 5603 5595 5587 5578 5570 5563 5555 5548 5541 5535 5531 5527 5523 5519
5755 5754 5751 5748 5744 5740 5735 5730 5726 5722 5718 5714 5710 5705 5699 5692 5685 5677 5670 5662 5654 5647 5640 5633 5627 5620 5612 5605 5597 5589 5580 5571 5563 5554 5547 5540 5534 5528 5524 5519 5515 5512 5509
5746 5744 5741 5738 5734 5730 5726 5721 5717 5713 5708 5704 5699 5693 5686 5679 5672 5665 5658 5650 5643 5636 5629 5622 5614 5607 5599 5591 5582 5574 5565 5556 5549 5540 5533 5527 5522 5517 5512 5509 5505 5502 5500
5736 5734 5731 5728 5725 5721 5716 5711 5707 5703 5698 5693 5687 5681 5674 5667 5660 5654 5647 5639 5632 5625 5618 5610 5602 5593 5585 5576 5567 5559 5550 5542 5535 5529 5522 5516 5511 5507 5503 5499 5497 5495 5493
5726 5723 5720 5718 5715 5711 5706 5702 5698 5693 5688 5682 5676 5669 5663 5656 5649 5643 5636 5629 5622 5614 5606 5598 5590 5581 5572 5563 5554 5545 5537 5530 5524 5518 5512 5506 5502 5498 5495 5492 5490 5489 5488
5715 5712 5710 5708 5705 5702 5697 5693 5688 5683 5678 5672 5665 5659 5652 5646 5639 5633 5626 5619 5611 5603 5595 5586 5578 5569 5560 5551 5543 5534 5526 5520 5514 5509 5504 5499 5494 5491 5488 5486 5485 5485 5485
5704 5702 5700 5698 5696 5692 5688 5684 5679 5674 5668 5662 5655 5649 5643 5636 5630 5623 5616 5608 5600 5592 5584 5575 5567 5558 5549 5541 5532 5525 5517 5511 5506 5501 5496 5492 5488 5485 5483 5482 5482 5483 5484
5693 5693 5691 5689 5687 5684 5679 5675 5671 5665 5659 5653 5646 5640 5634 5628 5622 5614 5607 5599 5590 5582 5573 5565 5557 5548 5540 5531 5523 5516 5510 5504 5499 5494 5490 5486 5484 5482 5480 5480 5481 5482 5484
5684 5683 5682 5681 5678 5675 5672 5668 5663 5657 5651 5645 5639 5633 5627 5621 5613 5605 5597 5589 5581 5572 5564 5556 5547 5539 5531 5523 5515 5509 5503 5497 5492 5488 5485 5483 5481 5480 5479 5480 5481 5483 5485
5675 5674 5673 5672 5670 5668 5665 5660 5655 5650 5644 5638 5633 5627 5620 5613 5605 5597 5588 5580 5572 5563 5555 5547 5538 5530 5523 5515 5508 5502 5496 5492 5488 5485 5482 5480 5479 5479 5479 5481 5483 5485 5487
5668 5667 5666 5666 5664 5662 5658 5654 5648 5643 5638 5633 5627 5620 5613 5605 5597 5588 5580 5572 5563 5555 5547 5539 5532 5524 5516 5509 5503 5497 5492 5488 5485 5482 5481 5480 5480 5480 5482 5483 5485 5488 5490
5662 5662 5661 5661 5659 5656 5651 5647 5642 5638 5633 5627 5620 5613 5605 5597 5589 5580 5572 5564 5556 5549 5541 5533 5526 5518 5511 5504 5499 5494 5489 5486 5483 5482 5482 5481 5482 5483 5485 5487 5489 5492 5494
5658 5658 5657 5656 5653 5650 5645 5642 5638 5633 5628 5621 5614 5606 5598 5590 5582 5574 5566 5558 5551 5543 5536 5529 5521 5514 5508 5502 5497 5492 5489 5486 5484 5483 5483 5484 5485 5487 5489 5491 5494 5496 5498
5654 5654 5653 5651 5648 5645 5642 5638 5634 5629 5623 5616 5608 5600 5591 5583 5575 5567 5560 5552 5546 5538 5531 5524 5517 5511 5506 5501 5496 5493 5489 5487 5486 5486 5486 5487 5488 5491 5493 5496 5498 5501 5503